Location: Unspecified
(0.0000°N, 0.0000°E)
Time: 16:13:02
(UTC+01:00)

ARIANE DEB (SPELDA) - Visible Passes

Search period start: 10 February 2016 00:00
Search period end: 20 February 2016 00:00
Orbit: 348 x 33012 km, 3.9° (Epoch: 09 February)

Date Brightness Start Highest point End Pass type
(mag) Time Alt. Az. Time Alt. Az. Time Alt. Az.
10 Feb 2.3 05:47:11 48° S 05:47:11 48° S 05:49:17 10° ESE visible
10 Feb 7.7 15:57:54 10° W 17:46:54 72° W 00:34:18 63° W visible
11 Feb 5.9 11:00:56 10° W 18:07:56 51° E 19:55:08 10° E visible
12 Feb 2.3 06:11:18 26° WSW 06:12:22 41° S 06:14:34 10° ESE visible
12 Feb 7.9 16:25:15 10° W 18:14:06 63° W 00:58:36 52° W visible
13 Feb 6.2 11:25:59 10° W 18:34:15 59° E 20:20:25 16° E visible
14 Feb 2.4 06:35:23 10° WSW 06:37:39 38° S 06:40:12 10° ESE visible
14 Feb 8.0 16:53:18 10° W 18:40:47 55° W 01:22:53 42° W visible
15 Feb 6.6 11:51:05 10° W 19:00:54 68° ENE 20:44:41 23° E visible
16 Feb 8.1 17:22:19 10° W 19:07:01 46° W 01:47:08 32° W visible
17 Feb 6.9 12:16:17 10° W 19:27:49 76° ENE 21:08:56 32° E visible
18 Feb 8.3 17:52:47 10° W 19:32:50 38° W 02:11:22 24° W visible
19 Feb 7.2 12:41:33 10° W 19:54:46 84° NE 21:33:09 41° E visible
